Other Surface Observations
Issued by NWS Charleston, SC

Current Version | Previous Version | Text Only | Print | Product List | Glossary On
Versions: 1 2 3 4 5 6 7 8 9 10 11 12 13 14 15 16 17 18 19 20 21 22 23 24 25 26 27 28 29 30 31 32 33 34 35 36 37 38 39 40 41 42 43 44 45 46 47 48 49 50
000
SXUS52 KCHS 260227
OSOCHS

MARINE OBSERVATIONS
NATIONAL WEATHER SERVICE CHARLESTON SC
1000 PM EDT SUN JUN 25 2017

...DOWNTOWN CHARLESTON AND HARBOR...

CITY           SKY/WX    TMP DP  RH WIND       PRES   REMARKS
WATERFRONT PRK   N/A     78  75  90 VRB2      30.04R

...LAKE MOULTRIE...

CITY           SKY/WX    TMP DP  RH WIND       PRES   REMARKS
PINOPOLIS        N/A     75  75 100 VRB3      30.00R

...LAKE AND SUPPLEMENTAL COASTAL OBSERVATIONS...

STATION/POSITION TIME  TEMP    WIND        PRES    WAVE   SWELL
                       AIR SEA DIR/SP/G            HT/PER HT/PER/DIR
                 (UTC) (F)     (DEG/KT/KT) (MB)    (FT/S) (FT/S/D)
FORT PULASKI     0200   77 85  260/  5/  7 1017.7
SAPELO ISLAND    0200   75        CALM     1018.0
WINYAH BAY       0130   75     360/  3     1018.0R
LAKE MURRAY      0220   77      20/  2/  3 1018.3
ACE BASIN NERRS  0130   76        CALM     1018.0S


...C-MAN AND BUOY OBSERVATIONS...

STATION/POSITION TIME  TEMP    WIND        PRES    WAVE   SWELL
                       AIR SEA DIR/SP/G            HT/PER HT/PER/DIR
                 (UTC) (F)     (DEG/KT/KT) (MB)    (FT/S) (FT/S/D)
BUOY 41004       0210   79 81  120/  2/  4 1017.6
BUOY 41008       0150   78 82  290/  4/  6 1017.3F   2/ 5   2/150/ 5
FOLLY BEACH CMAN 0200   79      70/  3/  4 1018.5R
CAPERS NS BUOY   0208   84 83  110/  2/  4 1018.0R
FRIPP NS BUOY    0208   79 84  190/  6/ 10 1016.7F
5E ST. MARYS GA  0200      81                N/A     3/ 4


STATION/POSITION TIME  TEMP    WIND        PRES    WAVE   SWELL
                       AIR SEA DIR/SP/G            HT/PER HT/PER/DIR
                 (UTC) (F)     (DEG/KT/KT) (MB)    (FT/S) (FT/S/D)
FRYING PAN BUOY  0210   79 81  330/  8/ 10 1017.9
BUOY 41025       0150   80 80  250/ 12/ 14 1017.1S   3/ 6   2/200/ 6
CAPE LOOKOUT NC  0200   74     230/  9/ 12 1017.5R
BUOY 41002       0150   81 81  210/ 10/ 12 1020.2R   4/ 6   3/230/ 6
BUOY 41010       0210   83 84  160/ 10/ 10 1019.0
ST AUGUSTINE FL  0200   74 76   20/ 10/ 11 1020.3R

$$




USA.gov is the U.S. government's official web portal to all federal, state and local government web resources and services.